Volver al catálogo

STARLINK-6229

ActivoComunicacionesVLEO
NORAD 57093·PAYLOAD·🇺🇸 United States

Lanzado Jun 22, 2023 desde Vandenberg Space Force Base

Loading…

Próximos Pases (próximas 24 horas)

TLE

ActualizadoSource: CelesTrak SupGP

Época: Sep 15, 2026, 02:20 UTC

1 57093C 23088AX  26258.09770833  .00040963  00000+0  14837-2 0  2589
2 57093  43.0002 106.3861 0001381 266.9543 269.3576 15.27558047    11

Sigue STARLINK-6229 en tiempo real con AllMySat

Download on the App Store